Theta_e
346 345 345 345 345 344 345 346 346 346 347 348 349 350 350 349 349 351 354 357 358 359 360 361 361 362 363 363 362 362 363 362 359 359 359 358 358 358 358 358 358 357 358 357 357 357 357 357 356 355 356 356 356 358 359 358 358 358 358 357 358 360 361
346 346 345 344 345 344 344 346 346 346 348 349 350 350 349 350 349 350 354 356 358 358 359 359 361 362 362 361 362 362 362 362 360 359 359 358 359 359 357 357 358 358 358 357 357 358 358 357 356 357 357 356 355 358 358 358 358 357 357 358 358 360 360
347 348 346 345 346 345 345 346 346 346 348 349 349 349 348 349 350 351 353 355 357 357 357 358 359 360 361 361 362 361 362 362 361 359 359 359 358 357 357 357 358 357 357 357 357 358 357 357 356 356 356 355 354 357 358 358 358 357 358 359 359 360 361
351 349 347 347 347 346 346 346 346 347 348 348 348 348 348 348 349 351 352 353 355 356 355 356 357 357 358 360 360 360 360 361 361 359 358 357 357 356 357 357 357 356 356 356 356 356 357 357 357 357 357 355 355 356 357 358 358 356 357 359 359 359 360
350 349 348 349 349 346 346 346 347 347 347 347 347 346 346 347 348 349 350 350 350 352 353 353 353 353 355 356 357 358 359 359 360 360 358 357 357 356 357 356 355 355 356 356 356 357 359 359 358 357 356 356 357 357 358 358 359 357 357 358 357 358 359
350 350 350 350 350 348 346 346 346 346 346 346 346 346 346 345 346 348 348 348 347 349 351 351 350 352 353 353 352 354 356 358 359 359 359 359 358 357 356 356 356 354 355 355 355 357 358 358 358 357 356 355 356 356 357 357 357 357 358 357 357 358 359
355 352 351 350 350 349 347 346 345 346 346 346 346 346 346 344 345 346 346 347 347 347 349 350 348 350 352 351 350 352 354 356 358 358 359 359 359 357 357 357 356 355 355 355 355 356 357 357 357 358 357 355 354 355 356 358 357 358 359 359 359 360 360
357 354 353 351 350 350 349 348 346 346 346 346 346 346 346 345 345 345 346 347 347 347 348 348 348 349 351 350 350 351 351 352 354 356 356 358 358 358 358 357 357 356 356 355 355 356 357 356 357 358 358 357 357 357 359 361 361 360 360 360 360 361 359
355 354 355 353 352 350 350 350 348 347 346 346 347 347 346 345 345 345 347 347 348 348 347 347 347 348 350 350 351 351 350 350 351 353 354 355 356 356 356 356 357 357 356 356 356 355 356 356 355 357 359 358 360 361 361 363 362 359 359 362 363 363 361
356 354 356 355 353 350 349 351 351 350 349 348 347 348 347 345 345 345 347 348 348 349 348 347 347 348 350 351 351 350 350 350 349 350 351 351 353 354 354 355 356 357 357 356 355 355 356 356 355 358 360 359 362 363 362 363 362 359 359 362 363 363 362
359 358 359 357 355 352 349 353 355 353 352 350 348 350 350 347 345 345 347 349 350 351 350 348 347 349 351 352 352 350 350 350 348 347 348 348 349 350 352 353 354 355 356 355 354 354 355 355 356 359 360 359 360 362 362 362 361 361 360 359 360 361 361
358 360 360 359 359 357 355 358 361 360 355 352 351 352 352 350 348 347 347 349 352 355 354 351 349 351 354 353 353 351 350 349 348 346 346 345 345 345 347 349 351 353 354 353 353 353 353 354 356 358 360 359 359 360 362 363 361 362 361 358 358 359 360
357 358 358 359 360 360 360 360 362 362 360 358 359 359 357 354 352 352 352 352 356 360 361 357 353 355 359 357 354 352 351 350 349 347 345 345 344 343 344 345 347 349 351 351 351 352 352 354 354 356 358 360 360 359 360 362 362 362 362 360 358 358 359
355 356 356 357 357 358 359 358 358 359 358 358 360 360 360 359 357 357 357 359 360 362 363 361 359 361 364 362 357 355 353 352 351 350 347 345 345 344 344 344 344 345 346 347 348 349 350 352 353 354 355 357 358 357 358 360 361 362 363 362 359 358 358
354 354 354 354 355 356 356 356 357 357 356 356 358 357 356 357 359 359 360 361 361 361 362 362 362 364 365 364 361 359 356 353 352 352 349 347 346 346 346 345 344 344 345 345 346 346 348 348 350 351 352 354 356 355 355 356 357 359 360 360 361 360 357
354 353 354 353 354 355 354 354 356 358 357 358 357 355 354 355 359 360 360 361 361 360 361 362 363 365 365 363 362 362 361 358 355 354 353 351 350 350 350 348 347 346 346 346 346 345 346 348 347 348 350 352 354 354 354 354 354 354 356 358 359 359 356
352 353 353 353 353 354 354 354 356 357 358 358 357 357 356 356 358 358 358 359 360 359 360 361 362 364 365 364 362 362 364 363 360 358 357 356 353 354 355 352 350 349 349 349 349 349 350 349 349 348 349 351 352 353 353 353 352 352 354 356 357 357 355
353 353 353 353 354 354 354 354 355 357 356 356 356 356 356 356 356 356 356 357 357 357 358 359 360 360 362 364 363 363 365 366 365 364 363 362 360 359 360 360 360 359 358 356 355 354 353 352 352 352 350 349 350 350 351 352 351 351 353 355 356 355 353
353 352 352 352 352 353 352 353 354 355 355 355 355 355 355 355 355 355 356 355 355 355 356 357 358 357 359 361 361 363 365 365 365 365 364 365 364 363 364 367 368 366 363 361 360 357 356 354 354 354 352 350 347 348 352 352 352 353 353 354 354 353 351
351 350 350 350 350 350 351 352 352 351 352 353 353 353 353 353 353 354 354 354 355 355 354 355 356 355 357 358 358 360 361 360 358 357 357 359 360 362 364 365 365 364 363 363 361 360 358 357 354 354 354 352 348 352 355 355 354 353 353 352 352 350 348
349 349 349 348 348 349 349 349 349 349 351 351 350 350 350 351 351 351 351 352 353 354 354 354 354 354 355 356 356 356 358 356 352 351 353 356 357 360 361 359 360 361 362 362 361 360 360 358 355 355 355 353 351 353 353 353 353 353 351 349 349 348 347
348 347 346 346 346 347 347 347 347 348 348 347 348 348 348 348 348 347 347 349 351 352 353 353 354 354 355 356 355 355 355 355 353 352 353 354 355 356 357 357 357 357 357 358 359 360 361 359 358 357 356 356 356 352 348 349 351 351 350 349 349 348 348
347 346 345 345 344 345 346 347 346 347 346 346 346 346 346 346 345 345 346 347 348 350 351 352 352 353 354 354 353 352 352 352 353 353 352 353 353 354 354 355 354 354 354 354 355 356 358 356 354 353 352 353 354 350 345 346 349 349 349 349 349 349 351
345 345 345 344 344 344 344 345 345 345 345 345 344 344 345 345 344 345 346 346 347 348 348 349 350 350 351 351 350 350 350 350 352 352 352 353 352 351 352 352 352 351 352 352 352 353 353 350 348 348 347 347 347 344 340 341 344 345 347 348 348 348 351
343 343 343 343 343 343 343 344 343 343 343 344 343 343 344 344 344 344 345 345 346 346 346 347 348 348 348 348 348 348 349 349 350 350 349 349 349 349 349 349 349 348 348 349 350 350 348 345 343 343 343 342 341 338 336 335 337 339 342 344 346 348 350
342 342 342 342 341 341 342 342 341 342 342 342 342 343 342 343 344 344 344 345 345 345 345 345 345 346 346 346 346 346 346 347 347 346 346 345 346 346 346 345 345 345 345 346 346 345 344 343 342 341 341 340 338 336 334 334 334 334 336 338 341 345 348
341 340 339 338 338 339 340 340 339 339 339 339 339 340 341 342 343 342 342 344 343 343 342 342 343 343 344 344 344 344 345 345 344 344 343 342 342 342 342 341 341 341 341 342 342 341 340 339 339 338 337 336 335 334 332 332 332 332 333 334 335 338 341
338 338 337 336 337 337 336 337 336 335 336 336 336 337 339 340 341 340 340 341 341 341 341 340 341 341 341 341 342 342 343 342 342 341 340 340 339 339 338 338 337 337 337 337 337 337 336 336 335 333 331 331 330 330 330 329 329 329 329 329 330 331 333
337 335 335 335 334 334 334 334 333 332 332 333 333 335 337 338 338 339 339 339 339 338 338 338 339 339 338 338 337 337 338 339 339 339 338 337 337 336 336 336 335 334 334 334 334 333 333 334 333 331 329 328 327 326 326 326 326 326 325 325 325 326 327
335 333 334 333 332 332 332 331 331 331 331 331 331 332 334 336 337 337 337 337 336 336 336 337 337 337 337 336 335 334 334 334 335 335 335 335 335 334 334 334 334 334 334 334 334 333 332 333 333 332 331 330 329 327 327 326 325 324 324 323 323 323 323
334 333 332 332 331 332 332 331 331 330 331 331 330 331 332 334 335 335 335 334 334 334 334 335 335 335 335 335 335 333 332 331 331 332 332 333 333 333 334 333 333 333 333 333 333 334 333 333 332 332 332 331 330 329 328 327 326 325 325 325 324 323 321
334 333 332 330 330 331 331 330 330 330 329 329 329 329 331 332 333 334 333 332 332 332 333 334 334 333 333 333 333 332 331 330 329 329 329 329 329 330 331 331 333 333 333 333 333 333 333 332 330 330 331 331 330 329 328 328 328 327 327 327 328 326 323
333 332 332 331 330 330 329 329 328 328 328 327 327 327 328 329 330 331 330 330 330 331 332 332 332 331 331 330 330 330 329 329 328 327 327 326 326 327 327 328 330 331 332 332 332 332 332 332 331 331 330 330 330 329 328 328 329 328 327 327 328 328 326
331 331 330 330 329 328 328 328 328 327 327 327 327 326 326 326 327 327 328 328 328 329 331 331 330 330 329 328 328 328 328 328 328 327 327 327 327 327 326 327 327 328 329 329 329 330 330 331 330 330 329 329 329 329 328 327 327 326 324 322 322 324 323
330 330 329 328 327 326 326 326 326 326 326 326 325 326 325 325 324 325 326 326 328 329 330 330 329 328 328 327 326 326 326 327 327 326 326 328 327 326 326 326 327 327 326 326 327 328 329 329 329 328 328 328 327 328 328 327 324 321 319 317 317 317 317
329 329 328 326 324 324 325 325 325 325 325 324 324 324 324 325 325 325 325 325 326 328 329 329 328 327 327 327 326 326 325 325 325 325 324 325 325 324 323 323 323 323 323 323 323 325 326 326 326 325 325 325 324 325 325 324 321 318 317 316 315 314 314
327 326 325 324 323 323 323 323 323 323 323 323 323 322 323 324 325 325 326 325 325 326 327 328 328 327 327 327 326 326 325 324 324 325 324 324 324 324 322 321 320 320 319 320 320 320 321 322 322 321 322 321 321 321 320 319 318 317 315 315 314 314 314
324 324 324 323 323 322 322 321 322 322 322 321 321 321 321 322 322 324 325 325 326 326 326 327 327 326 326 327 327 327 326 326 325 325 325 325 324 324 323 322 321 319 318 317 317 317 318 318 319 319 320 319 319 318 317 316 316 315 315 315 314 314 313
Wind_Speed
17 16 15 13 14 15 15 17 19 19 20 20 19 19 18 17 17 17 18 19 19 19 18 16 16 15 15 13 11 11 10 9 10 9 9 9 8 8 8 8 8 8 7 7 7 7 7 7 7 7 7 7 6 6 5 4 4 3 4 4 3 2 2
17 15 15 15 15 15 17 20 21 19 20 20 19 19 18 17 17 17 18 19 19 19 18 17 16 16 15 14 12 12 11 10 10 9 9 9 7 7 8 7 8 8 7 7 7 7 7 7 8 8 7 7 7 7 6 5 5 5 4 4 4 3 3
16 15 15 14 15 15 16 20 20 19 19 20 20 20 19 18 17 17 18 19 20 19 19 18 17 16 15 15 14 13 12 11 10 10 10 10 9 9 8 7 7 7 7 7 7 7 8 8 8 8 8 8 8 7 7 6 6 6 5 5 5 5 4
14 15 16 15 15 16 16 19 19 19 19 20 20 19 19 19 18 17 17 18 20 20 19 19 18 17 16 15 15 14 14 13 11 11 11 10 10 10 9 9 8 8 8 8 8 7 7 8 8 8 8 8 8 8 8 7 7 6 6 6 6 6 5
17 16 15 14 14 14 15 19 21 20 20 19 19 18 19 20 19 19 18 18 19 20 20 20 19 18 16 16 15 14 15 14 12 12 11 10 10 10 9 9 9 9 8 8 8 7 6 7 8 8 9 9 9 8 8 8 8 7 7 7 7 6 6
15 15 14 12 12 13 14 20 23 22 20 19 19 19 20 21 21 21 19 19 19 19 20 19 19 19 18 17 15 14 15 15 14 13 12 10 10 11 10 10 10 9 9 9 9 9 8 7 8 8 9 9 9 9 9 9 8 8 8 8 8 7 7
12 14 14 13 12 10 12 18 23 22 20 19 19 19 19 20 21 20 19 19 19 20 20 20 19 19 18 17 16 16 16 16 16 14 13 13 13 12 11 11 10 10 10 10 9 9 9 9 8 8 9 9 9 9 8 8 8 8 8 8 8 8 7
15 13 13 13 13 10 9 12 18 21 21 20 19 20 19 19 20 20 19 19 18 19 19 20 19 18 18 17 17 17 17 16 16 16 15 15 14 14 13 12 12 11 11 11 10 9 10 10 10 9 9 9 8 8 7 7 8 8 8 8 8 8 8
14 13 11 11 13 13 12 13 16 18 19 19 19 20 20 19 19 19 19 19 18 18 18 18 19 18 18 17 17 17 17 16 16 16 16 16 15 15 15 14 14 13 13 12 11 11 10 10 10 10 9 9 8 8 7 7 8 8 8 7 7 8 8
12 13 13 12 12 14 16 18 17 15 16 17 17 18 19 19 19 18 18 19 19 18 18 18 18 19 18 17 17 17 17 17 17 17 17 16 16 16 16 15 14 14 14 13 12 12 11 10 10 10 10 9 9 9 8 8 8 9 9 8 8 8 8
11 10 11 12 11 12 15 15 13 13 16 16 16 16 18 18 18 18 18 18 18 18 19 18 17 18 18 17 17 18 18 18 18 18 18 17 17 16 16 15 14 15 14 14 13 12 12 12 10 10 11 10 10 10 10 9 9 9 9 10 9 9 9
11 9 9 10 10 10 10 10 9 9 11 13 13 13 14 15 15 16 18 18 17 18 20 19 17 17 18 18 18 17 17 18 17 18 18 18 17 17 16 15 14 15 14 14 13 12 12 12 11 11 11 11 11 11 11 10 10 10 10 11 11 10 10
11 10 9 10 10 9 9 8 9 10 11 11 10 8 9 13 14 14 17 18 17 17 18 18 18 19 19 18 18 17 17 18 17 17 18 17 17 17 16 16 16 15 14 14 13 12 11 12 12 12 11 11 11 11 11 11 11 11 12 12 11 10 10
11 11 11 12 11 11 10 9 9 11 11 11 10 7 5 9 12 13 15 17 16 15 16 16 17 18 18 18 18 18 18 18 17 17 16 16 17 16 15 15 16 15 15 15 14 13 13 12 12 12 12 12 12 11 11 12 11 12 13 12 11 10 10
10 11 11 12 13 13 13 11 10 11 13 12 12 11 8 7 10 11 12 13 14 14 15 15 16 17 17 16 17 17 18 18 17 17 16 15 16 16 15 14 13 14 14 14 14 13 13 13 12 12 12 12 12 12 12 12 12 12 12 12 10 9 10
10 11 11 12 13 13 12 12 12 12 13 13 13 13 13 11 11 12 11 11 12 13 13 14 14 15 15 16 16 16 17 17 17 17 16 16 15 15 15 14 13 13 13 13 13 13 12 12 13 13 12 12 12 13 13 11 9 11 13 13 11 9 9
9 10 11 10 11 11 11 11 12 13 14 13 13 13 13 13 13 13 12 12 11 12 13 13 13 14 13 14 14 15 15 15 16 16 17 17 16 15 15 15 14 14 13 13 14 14 13 12 13 13 13 12 12 13 12 10 8 10 13 14 13 11 9
9 8 9 8 7 8 9 9 10 12 13 14 13 12 12 12 12 12 12 13 13 12 12 13 14 14 13 12 13 14 14 13 13 14 14 14 15 16 14 12 12 11 12 13 14 14 14 14 13 13 13 13 13 12 9 9 10 11 13 15 15 13 11
11 9 8 7 7 7 6 6 7 8 9 10 10 9 8 8 10 10 10 11 13 14 15 14 14 14 13 13 12 12 13 13 13 13 13 12 13 14 13 11 10 10 11 12 12 13 13 14 13 13 13 13 13 9 6 8 10 11 12 14 14 14 14
11 10 8 7 8 8 7 7 7 8 7 7 8 7 6 6 7 7 6 7 10 13 15 15 15 15 14 14 14 12 12 14 14 14 14 13 12 11 10 9 10 10 10 11 11 12 12 13 13 13 13 13 12 7 6 8 10 9 10 11 11 14 15
10 11 10 8 7 8 9 9 8 8 7 6 6 5 5 4 3 2 3 5 7 10 13 14 14 14 13 13 13 11 11 12 13 13 12 11 10 8 9 11 12 11 10 10 10 11 12 13 14 13 12 13 12 7 4 6 8 7 9 10 10 13 13
10 12 12 9 8 9 10 10 9 8 8 8 8 8 7 5 3 2 3 6 6 8 9 11 11 9 8 9 9 9 10 11 11 10 10 10 9 9 11 12 13 14 13 13 12 12 12 11 12 11 10 10 11 10 5 3 6 6 7 8 8 9 9
10 14 13 11 10 10 9 10 10 9 8 7 7 7 8 8 5 3 4 5 6 6 5 6 7 6 5 7 8 10 13 16 15 13 14 14 12 12 12 11 12 13 14 15 14 13 13 10 6 6 6 4 9 11 6 3 3 3 5 6 7 7 6
12 14 14 13 12 11 10 9 9 9 7 7 7 6 6 8 8 6 7 6 6 7 6 5 6 7 6 7 8 9 12 15 15 14 15 15 13 13 12 11 11 11 11 12 11 9 10 9 5 9 10 11 13 11 8 6 2 1 3 5 6 7 7
11 13 13 13 12 11 10 9 9 9 8 8 8 6 5 7 8 9 9 9 9 10 9 8 7 8 9 8 8 9 10 12 13 13 13 13 12 11 11 10 11 10 9 10 10 7 7 9 12 15 15 15 14 13 11 10 7 5 3 1 3 5 4
11 13 14 13 12 12 11 11 10 10 10 9 8 7 6 7 9 10 11 11 12 13 13 12 12 12 12 11 11 11 11 12 13 13 13 14 13 12 10 10 9 8 9 11 11 12 15 16 17 16 15 14 12 12 12 11 10 9 7 5 2 1 1
13 14 15 14 13 13 12 12 12 12 12 10 9 8 8 8 9 10 12 14 14 14 14 13 13 14 14 13 13 14 14 15 15 15 15 16 16 14 12 11 11 11 12 13 13 15 19 20 19 18 16 14 13 13 13 12 11 10 9 8 6 4 3
14 14 15 13 12 12 13 13 13 12 12 11 10 10 9 9 10 10 13 15 14 13 14 14 14 14 15 15 15 14 16 18 18 17 17 17 16 14 13 12 12 13 14 14 15 16 18 18 19 19 19 18 16 16 15 14 12 11 11 10 10 9 7
13 13 12 12 11 12 13 13 12 11 11 11 11 11 10 9 11 11 13 14 13 12 12 14 14 15 16 17 16 15 15 17 18 17 17 16 15 15 14 13 12 13 13 13 14 16 16 16 16 18 19 18 17 17 16 15 14 14 14 13 13 12 10
12 11 11 11 12 12 12 12 12 11 11 10 10 10 10 10 10 11 12 11 11 11 11 13 14 16 16 15 15 14 15 16 16 16 16 15 15 15 14 13 13 12 12 11 12 13 14 13 12 13 14 14 13 14 14 14 13 13 13 13 13 12 11
9 10 11 12 12 12 13 12 11 11 11 10 10 10 10 10 11 11 11 10 9 10 11 12 13 14 13 13 13 13 14 15 14 14 14 14 14 14 13 12 12 11 11 11 11 10 11 11 11 11 11 11 11 11 11 11 11 11 11 12 12 11 10
10 9 10 11 11 11 12 12 11 12 10 9 9 9 9 10 10 10 10 9 9 10 11 11 13 13 12 12 12 12 13 13 13 13 13 13 13 13 12 11 10 10 9 10 10 9 8 8 9 10 10 9 8 8 9 9 8 8 9 9 8 9 9
13 12 11 10 10 11 11 11 10 10 9 7 8 8 7 7 8 7 7 7 7 9 9 10 11 11 11 12 12 11 11 11 11 11 11 10 11 11 10 8 8 9 10 9 7 6 5 7 9 10 9 8 7 7 7 6 6 5 5 5 5 6 9
16 15 13 12 12 11 11 11 11 10 9 8 7 7 7 6 6 6 4 3 5 8 7 7 8 8 9 10 9 9 10 9 10 11 10 9 10 10 9 8 8 8 9 9 7 5 3 4 5 6 6 6 6 6 6 6 6 5 3 3 4 5 7
16 16 16 17 17 13 11 11 12 11 10 9 7 7 6 6 6 5 3 2 3 6 7 6 6 7 7 7 7 8 9 9 9 9 9 10 12 14 13 11 10 9 10 10 8 6 5 5 6 7 7 8 7 4 5 9 9 5 2 4 5 5 6
17 17 18 22 23 18 12 11 12 12 11 10 9 8 7 6 6 6 4 3 2 3 5 6 6 7 7 7 6 7 8 8 7 7 8 9 10 13 15 14 12 11 12 11 8 6 6 7 8 8 8 9 9 7 7 10 9 4 2 4 4 6 8
18 18 19 21 23 22 17 12 10 12 12 11 9 8 7 7 7 6 5 3 1 2 4 5 6 7 7 7 6 5 5 6 7 7 8 9 9 10 12 13 13 12 11 10 8 7 6 6 6 5 4 6 7 7 7 7 6 3 3 3 4 6 8
17 18 19 19 20 23 23 17 11 11 11 10 8 8 7 6 7 7 6 4 1 1 3 5 6 7 7 6 5 4 4 6 7 7 8 9 8 8 8 9 10 11 10 9 9 8 7 6 6 5 5 4 4 4 4 4 4 3 3 2 3 6 6
Wind_Direction
188 180 181 177 174 178 176 177 182 180 173 174 178 178 178 177 171 167 168 169 171 171 172 174 175 176 177 177 178 179 177 174 175 179 176 175 177 172 173 177 179 184 185 185 185 183 183 181 181 183 180 183 187 182 183 186 190 202 203 211 224 224 230
189 181 180 178 176 180 177 177 183 181 175 175 178 181 182 178 174 171 169 170 172 173 173 176 178 179 178 177 178 179 182 180 175 178 179 177 177 176 177 180 180 184 187 183 177 177 181 180 182 183 180 184 187 185 188 190 195 203 204 208 218 224 234
187 179 178 180 177 180 178 176 182 181 178 179 179 183 184 179 178 176 172 172 173 173 175 178 181 182 181 178 179 180 184 185 181 181 185 181 182 185 182 182 187 187 185 185 183 182 181 182 185 187 187 190 188 187 193 194 197 204 204 208 219 222 227
189 177 175 181 179 181 178 175 182 184 183 183 182 184 183 179 182 181 177 176 175 176 177 179 182 184 184 182 182 183 185 189 188 187 191 187 183 187 184 185 192 191 187 186 188 186 181 179 184 188 190 193 192 190 196 199 198 203 206 209 220 222 224
187 177 172 179 177 181 179 175 183 188 187 185 183 186 183 181 185 186 184 182 180 180 179 180 183 183 186 187 186 186 186 189 191 190 193 189 184 189 191 191 192 191 191 187 185 185 183 182 185 189 192 195 199 197 196 201 201 202 204 211 221 225 226
185 171 170 176 174 179 179 177 183 189 191 186 183 188 186 184 188 188 186 185 184 183 181 183 183 181 185 189 188 188 187 189 191 191 192 190 189 193 195 196 195 191 191 190 188 187 190 196 196 194 196 199 203 203 200 201 204 204 205 212 222 227 234
191 171 175 178 171 175 178 177 182 186 191 188 183 189 190 187 189 189 186 186 186 183 182 185 184 182 186 188 188 189 189 191 191 191 193 192 193 196 193 196 199 196 193 191 193 194 193 200 202 198 201 204 205 207 205 202 205 208 207 212 220 226 235
189 178 180 176 167 166 165 176 186 188 190 189 184 187 192 190 190 190 185 184 186 187 185 187 186 184 187 188 189 190 191 193 192 193 197 195 195 196 194 195 197 198 197 194 194 198 196 197 200 199 201 204 206 209 207 201 205 214 214 215 220 224 229
182 180 175 174 176 172 168 181 196 194 190 191 187 186 193 194 191 190 184 180 185 189 190 191 188 185 188 190 191 192 193 194 194 196 200 199 198 199 197 195 194 196 199 198 194 195 198 199 197 195 198 203 202 203 206 203 208 219 221 219 223 227 231
175 177 171 180 189 182 177 182 193 197 194 194 190 187 195 198 193 189 182 180 186 189 192 194 189 185 188 190 193 196 195 195 197 198 201 203 204 205 204 198 193 195 199 202 198 191 193 201 198 190 195 203 200 198 207 210 213 222 223 222 224 229 234
166 170 172 184 187 183 183 178 179 190 193 191 188 189 197 201 197 190 182 182 186 188 194 198 189 183 186 191 195 198 199 199 200 199 201 205 206 207 210 205 195 195 200 206 206 195 188 196 201 193 194 205 206 203 207 211 215 221 223 225 225 225 230
164 163 172 180 170 165 169 158 143 149 163 172 180 189 195 198 200 192 183 186 189 189 195 198 190 184 188 194 196 198 202 204 205 204 203 206 209 207 208 207 202 198 199 206 211 204 193 194 200 201 201 208 211 206 206 210 214 216 222 230 229 225 229
161 161 170 175 166 159 155 142 132 129 130 141 154 168 181 186 192 188 182 187 190 187 191 194 190 186 189 194 196 197 201 203 206 209 206 206 212 212 207 205 205 202 199 206 213 212 206 200 197 202 207 211 214 213 208 209 213 215 220 230 235 235 237
164 168 172 175 175 175 169 161 157 155 150 147 147 148 157 170 178 180 180 184 186 184 187 189 188 188 190 194 196 197 199 201 205 210 209 207 211 217 216 210 207 205 202 204 209 211 213 211 204 203 208 210 214 219 213 210 216 220 222 226 232 238 239
170 175 179 181 180 182 182 178 174 171 170 171 172 173 176 175 175 178 181 184 187 190 190 188 188 190 193 196 197 196 198 199 201 206 209 208 207 213 219 217 212 210 207 206 210 213 214 215 214 213 212 207 208 219 222 219 218 221 225 226 225 231 237
178 173 179 186 184 184 187 186 183 181 178 178 179 178 179 182 181 180 182 185 191 194 191 190 193 193 194 200 200 196 196 199 200 202 205 207 205 207 213 216 213 212 210 207 213 219 217 216 218 220 221 212 207 216 224 225 222 218 223 230 227 226 237
184 172 172 179 181 181 186 188 188 190 187 185 184 179 178 183 186 186 188 190 195 198 194 191 197 199 197 199 201 196 192 193 195 197 200 203 204 205 209 212 213 213 212 209 211 215 217 218 218 220 224 220 215 220 222 220 224 216 214 223 227 224 235
173 162 154 154 158 164 174 181 184 190 192 192 194 193 190 191 193 194 195 197 200 206 205 195 195 204 205 200 199 195 190 189 186 186 191 195 197 198 200 201 203 202 201 202 205 207 210 214 216 217 223 224 225 229 219 206 215 216 210 215 221 222 233
150 141 137 133 129 133 142 149 155 162 169 174 179 182 181 188 198 202 203 207 207 208 209 201 196 203 208 206 203 197 193 192 185 179 183 188 190 188 183 180 186 191 191 196 201 205 209 212 214 216 220 225 229 227 195 187 203 211 210 213 220 230 240
137 131 129 131 134 132 119 109 123 136 144 157 166 166 167 185 203 204 202 214 216 212 210 206 202 204 205 206 208 206 205 203 196 192 193 196 195 186 177 180 189 192 195 199 201 205 209 210 212 214 214 220 222 201 165 189 201 206 217 225 234 243 248
137 126 116 109 110 110 107 112 127 140 149 159 162 164 176 189 188 177 199 219 220 218 215 211 209 208 206 206 207 207 211 211 207 207 203 196 192 188 188 194 195 192 195 200 204 211 212 213 214 210 207 212 207 170 150 207 213 215 229 237 242 244 246
138 123 115 111 109 108 116 127 129 126 131 142 145 149 154 155 149 163 213 224 221 222 223 216 211 207 203 202 200 201 208 208 207 211 210 203 200 200 200 201 200 202 205 206 209 213 213 216 215 205 202 205 185 150 123 192 210 218 230 233 241 243 245
117 111 112 118 122 119 119 125 123 119 126 131 129 131 129 127 126 139 166 193 205 206 204 199 200 192 172 174 182 185 192 193 193 196 200 201 201 200 199 200 201 203 206 208 212 214 218 229 223 188 179 143 136 135 120 122 186 221 239 244 248 249 255
100 105 112 118 124 129 130 132 131 129 130 124 116 114 112 114 119 123 126 140 158 165 158 161 185 190 172 168 172 168 170 175 178 179 182 187 192 192 193 197 201 201 200 200 203 208 219 222 170 134 123 94 89 97 91 84 96 212 254 265 264 255 257
95 104 111 117 126 133 132 131 130 129 127 122 120 119 104 101 113 118 118 123 129 131 128 125 135 150 155 157 161 160 159 164 167 162 159 164 170 173 175 182 193 197 185 176 170 145 133 147 136 122 112 100 92 89 86 83 76 68 58 330 276 250 253
102 109 109 109 112 116 118 120 121 120 115 108 107 109 100 97 110 115 113 113 109 103 101 101 103 111 122 127 130 136 142 151 155 149 141 140 140 138 139 143 153 160 148 145 148 126 109 116 125 121 114 114 112 101 91 84 72 63 58 48 40 198 186
110 110 109 108 110 114 119 118 112 107 104 104 104 103 100 102 108 111 109 103 98 97 98 98 97 99 105 113 118 123 127 129 129 124 120 121 122 120 118 117 117 122 126 126 125 115 105 104 109 107 104 106 106 99 88 78 69 60 54 51 50 54 69
113 111 109 111 113 115 115 111 107 107 107 106 101 95 96 103 104 104 103 97 94 97 100 99 99 93 89 94 100 104 110 111 108 106 105 106 109 109 108 110 109 108 110 111 108 103 96 94 96 96 93 90 90 89 84 77 72 65 58 55 53 52 55
102 111 112 112 113 114 112 109 108 107 102 95 91 87 88 97 102 99 97 94 92 93 92 93 97 92 84 85 84 81 87 93 95 99 102 103 107 110 108 108 108 106 103 102 101 97 90 86 88 93 93 88 85 85 83 78 74 70 64 59 57 57 57
99 112 113 111 111 110 106 102 101 100 92 80 79 80 78 85 95 94 89 91 97 99 94 93 96 94 90 90 90 86 86 89 93 99 103 105 107 108 109 109 109 109 108 104 101 100 97 95 94 97 99 95 90 88 85 80 76 71 66 61 57 58 60
110 116 117 114 111 107 102 94 87 88 85 77 75 77 75 81 91 90 89 94 103 105 105 106 106 104 100 99 98 96 96 95 95 94 95 97 98 100 106 110 110 112 115 112 109 109 109 109 108 106 105 100 96 94 88 80 75 66 56 47 39 40 50
101 105 114 117 114 109 105 97 85 81 82 80 80 77 71 74 81 83 88 99 103 105 112 117 116 116 118 116 111 110 109 105 101 96 93 94 97 96 95 98 102 105 106 108 113 117 120 125 125 120 114 109 109 108 97 82 72 59 43 31 19 16 25
95 88 92 102 106 103 101 97 91 88 83 73 76 83 83 83 83 81 89 104 110 110 115 122 126 128 129 127 125 125 122 115 112 113 112 109 108 101 94 96 103 94 82 85 100 109 119 134 140 137 133 132 131 127 118 105 92 74 44 21 14 14 18
104 98 93 93 93 90 91 92 90 90 86 76 72 82 93 100 101 100 107 124 127 126 130 137 140 137 134 136 138 135 131 130 130 129 121 106 95 91 93 104 108 91 77 79 84 82 90 120 131 135 138 136 133 140 147 133 109 91 61 35 38 33 27
116 111 104 97 90 83 84 91 91 86 82 79 74 74 87 102 104 105 110 101 111 134 151 160 157 149 145 144 141 136 139 144 140 131 120 101 87 82 84 93 100 96 90 87 82 78 84 93 85 72 73 84 86 91 122 122 113 105 79 59 55 48 38
122 113 110 107 103 98 88 83 88 87 79 74 74 73 77 79 67 63 72 69 80 153 166 169 169 162 154 147 146 155 161 154 137 126 126 119 103 89 86 90 96 98 96 90 81 76 84 93 88 73 70 80 79 67 79 101 109 112 90 72 54 43 40
126 118 117 115 114 112 104 89 85 89 84 78 76 73 72 72 60 50 60 73 90 179 170 175 181 174 162 155 156 169 169 150 138 132 124 120 116 107 98 93 89 85 84 83 82 80 83 92 96 91 88 96 95 83 80 91 101 109 104 84 47 37 41
132 126 126 124 121 119 115 106 94 86 84 84 81 74 73 75 62 46 48 57 65 162 169 186 198 189 174 158 146 149 152 144 145 143 131 128 133 133 126 116 101 87 77 73 71 71 73 81 91 101 105 104 104 101 95 96 108 116 106 72 26 30 38